Weather Service Report


761 
ASUS44 KMEG 262010
RWRMEG
MEMPHIS CWA HOURLY WEATHER ROUNDUP
NATIONAL WEATHER SERVICE MEMPHIS TN
300 PM CDT SUN MAR 26 2017

...WEST TENNESSEE...
  
CITY           SKY/WX    TMP DP  RH WIND       PRES   REMARKS
MEMPHIS INTL   MOSUNNY   73  54  51 W14       29.95F                  
NWS MEMPHIS      N/A     74 N/A N/A MISG        N/A                   
JACKSON        PTSUNNY   73  54  51 W13G23    29.94F                  
SOMERVILLE     PTSUNNY   73  54  49 SW15G24   29.94F                  
BOLIVAR        PTSUNNY   72  52  49 SW10G16   29.94F                  
SAVANNAH       PTSUNNY   73  55  53 SW14      29.96F                  
DYERSBURG      SUNNY     70  54  56 W12       29.95F                  
PARIS          MOSUNNY   68  54  60 SW21      29.94S                  
HUNTINGDON     PTSUNNY   72  55  56 SW12      29.93F                  


...EASTERN ARKANSAS...
  
CITY           SKY/WX    TMP DP  RH WIND       PRES   REMARKS
JONESBORO      SUNNY     67  52  58 SW17      29.94F                  
WEST MEMPHIS   SUNNY     72  50  45 W13G20    29.95S                  
BATESVILLE     SUNNY     72  48  43 S8        29.94F                  
NEWPORT        SUNNY     70  51  51 SW13      29.94F                  
WALNUT RIDGE   MOSUNNY   68  48  49 S14G20    29.94F                  
BLYTHEVILLE    MOSUNNY   69  55  60 SW17G23   29.95F                  
SEARCY         PTSUNNY   73  52  47 S8        29.96F                  
STUTTGART      SUNNY     73  48  40 S8        29.96F                  
PINE BLUFF     SUNNY     76  50  40 E5        29.93F                  
MONTICELLO     SUNNY     79  49  34 S5        29.93F                  


...NORTH MISSISSIPPI...
  
CITY           SKY/WX    TMP DP  RH WIND       PRES   REMARKS
TUPELO         MOSUNNY   77  52  41 SW14      29.97F                  
OXFORD         MOSUNNY   73  50  43 SW8G20    29.98F                  
BATESVILLE     MOSUNNY   74  53  48 SW14G20   29.98S                  
OLIVE BRANCH   MOSUNNY  N/A N/A N/A SW14      29.95S                  
TUNICA         MOSUNNY   73  52  46 SW12      29.96F                  
CLARKSDALE     MOSUNNY   73  57  56 S7G16     29.96F                  
GREENWOOD      MOSUNNY   77  57  50 S9        29.96F                  
COLUMBUS       MOSUNNY   76  58  53 S10G21    29.97F                  
STARKVILLE     PTSUNNY   77  55  47 SW5       29.99F                  


...SOUTHEAST MISSOURI...
  
CITY           SKY/WX    TMP DP  RH WIND       PRES   REMARKS
KENNETT        SUNNY     70  52  52 SW15G24   29.93F                  
MALDEN         MOSUNNY   66  50  55 W12G18    29.95F                  
WEST PLAINS    MOSUNNY   65  49  56 S13G20    29.93F                  
POPLAR BLUFF   MOSUNNY   64  50  60 VRB5      29.94F                  
CAPE GIRARDEAU PTSUNNY   62  48  60 SW13      29.94S                  


...NORTHWEST ALABAMA...
  
CITY           SKY/WX    TMP DP  RH WIND       PRES   REMARKS
MUSCLE SHOALS  MOSUNNY   73  54  51 SW14      29.99F                  


...MIDDLE TENNESSEE...
  
CITY           SKY/WX    TMP DP  RH WIND       PRES   REMARKS
NASHVILLE      PTSUNNY   70  52  52 SW12G21   29.97F                  
CLARKSVILLE    CLOUDY    69  52  54 SW15G24   29.93F                  


...WESTERN KENTUCKY...
  
CITY           SKY/WX    TMP DP  RH WIND       PRES   REMARKS
PADUCAH        CLOUDY    62  49  62 SW14      29.94S                  
FORT CAMPBELL  MOSUNNY   70  54  56 SW17G23   29.92F                  


...CENTRAL ARKANSAS...
  
CITY           SKY/WX    TMP DP  RH WIND       PRES   REMARKS
LITTLE ROCK    MOSUNNY   75  51  43 S10       29.93F                  


SKY/WX REPORTED AS FAIR MEANS FEW OR NO CLOUDS BELOW
12 THOUSAND FEET.

  


763 
ASUS44 KMEG 262010
RWRTN 
TENNESSEE HOURLY STATE WEATHER ROUNDUP
NATIONAL WEATHER SERVICE MEMPHIS TN
300 PM CDT SUN MAR 26 2017

TNZ002-004-019-021-049-052-054-088>092-262100-
WEST TENNESSEE
  
CITY           SKY/WX    TMP DP  RH WIND       PRES   REMARKS
MEMPHIS INTL   MOSUNNY   73  54  51 W14       29.95F                  
NWS MEMPHIS      N/A     74 N/A N/A MISG        N/A                   
JACKSON        PTSUNNY   73  54  51 W13G23    29.94F                  
DYERSBURG      SUNNY     70  54  56 W12       29.95F                  
SOMERVILLE     PTSUNNY   73  54  49 SW15G24   29.94F                  
BOLIVAR        PTSUNNY   72  52  49 SW10G16   29.94F                  
PARIS          MOSUNNY   68  54  60 SW21      29.94S                  
HUNTINGDON     PTSUNNY   72  55  56 SW12      29.93F                  
SAVANNAH       PTSUNNY   73  55  53 SW14      29.96F                  
$$

TNZ008-025-027-028-033-062-065-066-262100-
NORTH MIDDLE TENNESSEE
  
CITY           SKY/WX    TMP DP  RH WIND       PRES   REMARKS
NASHVILLE      PTSUNNY   70  52  52 SW12G21   29.97F                  
PORTLAND       CLOUDY    70  55  60 S13G22    29.95S                  
CLARKSVILLE    CLOUDY    69  52  54 SW15G24   29.93F                  
SMYRNA         PTSUNNY   71  57  61 SW13      29.98F                  
COOKEVILLE     CLOUDY    66  59  77 SW15      29.99F                  
GALLATIN       PTSUNNY   70  54  56 S12G21    29.98S                  
CROSSVILLE     MOSUNNY   66  55  67 S14G30    30.02F                  
$$

TNZ061-075-076-078-094-096-097-262100-
SOUTH MIDDLE TENNESSEE
  
CITY           SKY/WX    TMP DP  RH WIND       PRES   REMARKS
FAYETTEVILLE   PTSUNNY   68  61  77 SW14G22   30.01F                  
TULLAHOMA      PTSUNNY   64  59  82 S10       30.02F                  
WINCHESTER     CLOUDY    68  57  68 SW10      30.02S                  
MCMINNVILLE      N/A     66  61  82 SW12      30.01S                  
SHELBYVILLE    PTSUNNY   72  61  68 S16       30.00F                  
$$

TNZ017-018-042-046-047-262100-
NORTHEAST TENNESSEE
  
CITY           SKY/WX    TMP DP  RH WIND       PRES   REMARKS
TRI CITIES     CLOUDY    73  48  41 S17G25    30.01F                  
ELIZABETHTON   PTSUNNY   73  50  43 S13G21    30.02F                  
$$

TNZ012-013-036-069-073-074-262100-
CENTRAL EAST TENNESSEE
  
CITY           SKY/WX    TMP DP  RH WIND       PRES   REMARKS
KNOXVILLE      PTSUNNY   69  58  67 SW9       30.00F                  
OAK RIDGE      PTSUNNY   72  56  57 SW10G20   30.01F                  
DOWNTOWN KNOXV PTSUNNY   73  57  56 SW15G24   30.01S                  
GATLINBURG     MOSUNNY   73  50  43 SW15      30.01R                  
MORRISTOWN     MOSUNNY   68  59  73 W9        30.01F                  
JACKSBORO      PTSUNNY   70  55  60 SW9G21    30.03F                  
$$

TNZ083-085-099-262100-
SOUTHEAST TENNESSEE
  
CITY           SKY/WX    TMP DP  RH WIND       PRES   REMARKS
CHATTANOOGA    MOSUNNY   75  55  49 S22G30    30.02F                  
$$

SKY/WX REPORTED AS FAIR MEANS FEW OR NO CLOUDS BELOW
12 THOUSAND FEET.

  

Return to Home page


Western Regional Climate Center, wrcc@dri.edu